[[{"header":{"parameterUnit":"m.s-1","parameterCategory":1,"la1":30.2991,"la2":30.254,"lo1":-89.0895,"lo2":-89.0444,"dy":0.0017,"dx":0.0017,"nx":28,"ny":28,"refTime":"2023-06-18T21:00:00:Z","depth":0,"parameterNumber":2,"parameterNumberName":"U-component_of_WINDS"},"data":[0,0,0,0,0,0,0,0,0,0,0,0,0,0,0,0,0,0,0,0,0,0,0,0,0,0,0,0,0,0,0,0,0,0,0,0,0,0,0,0,0,0,0,0,0,0,0,0,0,0,0,0,0,0,0,0,0,0,5.1065,5.1066,0,5.1168,5.1169,5.1171,5.11,5.1097,5.1093,5.109,5.1201,5.1207,5.1213,0,0,0,0,0,0,0,0,0,0,0,0,0,5.0813,5.0818,5.1065,5.1066,5.1068,5.1168,5.1169,5.1171,5.11,5.1097,5.1093,5.1089,5.1199,5.1206,5.1214,0,0,0,0,0,0,0,0,0,0,0,0,0,5.092,5.082,5.1065,5.1044,5.1044,5.1168,5.117,5.1171,5.1101,5.1096,5.1092,5.1087,5.1197,5.1206,5.1215,5.1366,0,0,5.1242,5.1246,0,0,0,0,0,0,0,0,5.0914,5.093,5.1046,5.1046,5.1045,5.1116,5.1121,5.1237,5.1102,5.108,5.109,5.1085,5.1177,5.1188,5.1218,5.1371,5.1376,5.1243,5.1248,5.1252,5.1254,0,0,0,0,0,0,0,5.0907,5.0925,5.1106,5.1048,5.1047,5.1032,5.1042,5.1143,5.1154,5.1081,5.1076,5.1089,5.1176,5.1209,5.122,5.1378,5.1242,5.125,5.1256,5.1259,5.1664,5.1669,0,0,0,0,0,0,5.0901,5.0919,5.1103,5.1109,5.0966,5.1041,5.1052,5.1098,5.1153,5.1157,5.1093,5.1086,5.1196,5.1209,5.1223,5.1405,5.1252,5.126,5.1265,5.1658,5.1665,5.1671,0,0,0,0,0,0,5.0895,5.0918,5.1098,5.1013,5.1035,5.105,5.1103,5.1103,5.1136,5.1162,5.1164,5.1124,5.1193,5.1211,5.1331,5.1408,5.1264,5.1272,5.1652,5.166,5.1668,5.177,0,0,0,0,0,0,5.0888,5.0916,5.0972,5.1014,5.1039,5.1203,5.1108,5.1108,5.1151,5.1142,5.1192,5.1196,5.1191,5.1318,5.134,5.1418,5.1279,5.1645,5.1656,5.1665,5.176,5.1781,5.1799,0,0,0,0,0,5.088,5.0997,5.0975,5.0998,5.1109,5.1207,5.1222,5.1212,5.1157,5.1215,5.1232,5.1194,5.1397,5.1331,5.1355,5.1437,5.164,5.1653,5.1664,5.1751,5.1777,5.1798,0,0,0,0,0,0,5.0965,5.1002,5.0978,5.1113,5.1157,5.1195,5.1267,5.1239,5.1301,5.129,5.1277,5.129,5.1416,5.1439,5.1365,5.1588,5.151,5.1528,5.1568,5.1592,5.1611,5.1603,5.1287,0,0,0,0,0,5.0999,5.1073,5.1103,5.1219,5.1243,5.1252,5.1294,5.1283,5.1329,5.1348,5.1374,5.1422,5.1496,5.1546,5.1615,5.1763,5.1774,5.1832,5.1851,5.1867,5.1882,5.1964,5.199,5.171,5.171,5.171,0,0,5.107,5.11,5.1148,5.1237,5.127,5.135,5.1268,5.1355,5.1415,5.1362,5.1476,5.1498,5.1551,5.1686,5.1747,5.1709,5.1962,5.1882,5.1894,5.1901,5.1979,5.2006,5.2029,5.1719,5.1717,5.1716,0,0,5.1241,5.1271,5.1372,5.1407,5.1458,5.1463,5.1488,5.1531,5.1543,5.1658,5.162,5.1692,5.182,5.186,5.1897,5.2087,5.2055,5.211,5.2211,5.2291,5.2313,5.2332,5.2401,5.2426,5.2125,5.2126,5.2126,0,5.1324,5.1441,5.1427,5.1518,5.1559,5.1514,5.1617,5.1653,5.1725,5.1756,5.1712,5.1873,5.1905,5.205,5.2096,5.2128,5.2157,5.2104,5.231,5.233,5.2348,5.2413,5.2439,5.2132,5.2131,5.2131,5.213,0,5.1541,5.1623,5.1699,5.1768,5.1818,5.1915,5.1918,5.1971,5.1956,5.1967,5.2087,5.2125,5.2202,5.2236,5.2223,5.238,5.2355,5.2311,5.2233,5.2381,5.2442,5.2467,5.2141,5.2139,5.2137,5.2135,0,0,5.1766,5.1829,5.1857,5.1889,5.1944,5.2008,5.2104,5.2178,5.2224,5.2277,5.2358,5.2469,5.2429,5.2472,5.2463,5.2533,5.2683,5.2481,5.2482,5.2518,5.286,5.2893,5.2922,5.2662,5.2667,5.2671,5.2856,0,5.1941,5.2106,5.2098,5.2254,5.2331,5.2291,5.2375,5.2419,5.2432,5.2501,5.2517,5.2596,5.2537,5.2563,5.263,5.265,5.2752,5.2637,5.274,5.2744,5.2727,5.2953,5.2987,5.316,5.288,5.2884,5.2887,0,5.2166,5.2225,5.2388,5.2433,5.2465,5.254,5.2609,5.2675,5.2725,5.2731,5.2779,5.276,5.286,5.2779,5.2918,5.284,5.2882,5.2899,5.2906,5.2914,5.2824,5.2969,5.3215,5.3241,5.2924,5.2921,5.2919,0,5.2315,5.2435,5.2549,5.2578,5.2633,5.2687,5.2713,5.2758,5.2805,5.2866,5.2896,5.2969,5.3009,5.3067,5.3069,5.301,5.321,5.3129,5.3219,5.3219,5.3262,5.3259,5.3518,5.3289,5.3289,5.3289,5.3288,0,5.251,5.2612,5.2617,5.2687,5.28,5.2792,5.2905,5.2926,5.2967,5.3042,5.3013,5.3084,5.3083,5.3156,5.3159,5.3274,5.3293,5.3301,5.33,5.3303,5.3302,5.333,5.3318,5.3295,5.3294,5.3293,5.3291,0,5.2695,5.2702,5.2823,5.2866,5.288,5.2962,5.2999,5.3067,5.3079,5.3174,5.3196,5.3216,5.3301,5.3309,5.3408,5.341,5.3549,5.3536,5.3532,5.353,5.3618,5.361,5.3904,5.3943,5.369,5.3692,5.3694,0,5.2818,5.2896,5.2947,5.2995,5.3023,5.3101,5.3148,5.3144,5.3194,5.3259,5.332,5.3402,5.3467,5.3605,5.3629,5.3706,5.3694,5.3792,5.3705,5.3707,5.3696,5.3691,5.37,5.3809,5.3812,5.3814,5.3816,0,5.3038,5.3038,5.3106,5.3177,5.3234,5.329,5.3342,5.3383,5.3386,5.3445,5.3531,5.3582,5.3683,5.3766,5.3841,5.387,5.3845,5.3843,5.3868,5.3871,5.3866,5.387,5.3578,5.3836,5.3834,5.3832,5.3831,5.3831,5.3196,5.3264,5.3311,5.3389,5.3427,5.3477,5.3543,5.3564,5.3635,5.3716,5.3711,5.3806,5.3858,5.3956,5.3991,5.4067,5.4034,5.407,5.4079,5.4088,5.4097,5.3854,5.4081,5.408,5.408,5.4079,5.4079,0,5.3414,5.3443,5.3515,5.3589,5.3651,5.362,5.3677,5.3732,5.3816,5.3865,5.393,5.403,5.4111,5.4142,5.4222,5.4277,5.4267,5.4298,5.4294,5.4301,5.4122,5.4092,5.4304,5.4304,5.4304,5.4304,5.4304,5.4304,5.3535,5.3648,5.3654,5.3787,5.3816,5.3908,5.3944,5.3991,5.403,5.4143,5.4209,5.4229,5.4272,5.4354,5.4428,5.4435,5.4466,5.4502,5.4504,5.4336,5.4313,5.4292,5.4264,5.4509,5.4509,5.4677,5.4679,5.468]},{"header":{"parameterUnit":"m.s-1","parameterCategory":1,"la1":30.2991,"la2":30.254,"lo1":-89.0895,"lo2":-89.0444,"dy":0.0017,"dx":0.0017,"nx":28,"ny":28,"refTime":"2023-06-18T21:00:00:Z","depth":0,"parameterNumber":3,"parameterNumberName":"V-component_of_WINDS"},"data":[0,0,0,0,0,0,0,0,0,0,0,0,0,0,0,0,0,0,0,0,0,0,0,0,0,0,0,0,0,0,0,0,0,0,0,0,0,0,0,0,0,0,0,0,0,0,0,0,0,0,0,0,0,0,0,0,0,0,2.2716,2.2716,0,2.2773,2.2774,2.2775,2.2769,2.2769,2.2768,2.2767,2.2825,2.2828,2.283,0,0,0,0,0,0,0,0,0,0,0,0,0,2.2599,2.2601,2.2716,2.2716,2.2717,2.2773,2.2774,2.2775,2.277,2.2769,2.2768,2.2767,2.2825,2.2827,2.283,0,0,0,0,0,0,0,0,0,0,0,0,0,2.2652,2.2601,2.2715,2.2721,2.2722,2.2773,2.2774,2.2775,2.277,2.2769,2.2767,2.2766,2.2824,2.2827,2.2831,2.2879,0,0,2.2842,2.2843,0,0,0,0,0,0,0,0,2.2649,2.2656,2.272,2.2721,2.2722,2.2763,2.2754,2.281,2.277,2.2752,2.2767,2.2765,2.2806,2.2811,2.2824,2.2882,2.2884,2.2842,2.2844,2.2846,2.2847,0,0,0,0,0,0,0,2.2645,2.2654,2.2738,2.2721,2.2722,2.272,2.2726,2.2765,2.2785,2.2753,2.2753,2.276,2.2806,2.2821,2.2826,2.2885,2.2842,2.2845,2.2847,2.2849,2.2982,2.2983,0,0,0,0,0,0,2.2641,2.2651,2.2737,2.274,2.2682,2.2723,2.273,2.2751,2.2785,2.2789,2.2761,2.276,2.2815,2.2821,2.2828,2.2885,2.2846,2.2849,2.2851,2.298,2.2982,2.2984,0,0,0,0,0,0,2.2638,2.2648,2.2734,2.2695,2.2706,2.2727,2.275,2.2753,2.2768,2.2791,2.2794,2.2773,2.2815,2.2823,2.2866,2.2887,2.285,2.2854,2.2979,2.2981,2.2983,2.3,0,0,0,0,0,0,2.2635,2.2647,2.2667,2.2696,2.2708,2.2772,2.2752,2.2755,2.2774,2.2773,2.2803,2.2806,2.2814,2.286,2.2869,2.2891,2.2857,2.2977,2.298,2.2982,2.2998,2.3002,2.3006,0,0,0,0,0,2.2631,2.267,2.2668,2.2678,2.2733,2.2773,2.278,2.2789,2.2776,2.2795,2.2809,2.2805,2.2883,2.2865,2.2875,2.2898,2.2976,2.2979,2.2982,2.2996,2.3001,2.3006,0,0,0,0,0,0,2.2643,2.2674,2.2672,2.2722,2.2745,2.2772,2.2797,2.2795,2.2823,2.282,2.2829,2.2836,2.2879,2.2893,2.2872,2.2945,2.2927,2.2933,2.2934,2.294,2.2944,2.294,2.2859,0,0,0,0,0,2.2652,2.2683,2.2707,2.2749,2.2761,2.2777,2.2795,2.2799,2.2823,2.2833,2.2851,2.2874,2.2903,2.2922,2.2951,2.2999,2.3005,2.302,2.3024,2.3028,2.3032,2.3056,2.3062,2.2994,2.2994,2.2994,0,0,2.267,2.269,2.271,2.2752,2.277,2.2801,2.2785,2.2819,2.2841,2.2838,2.2879,2.2893,2.2919,2.2964,2.2985,2.2977,2.3052,2.3032,2.3034,2.3037,2.306,2.3066,2.3072,2.2996,2.2996,2.2995,0,0,2.2718,2.2738,2.2773,2.2791,2.2819,2.2829,2.2837,2.2865,2.2873,2.2915,2.2912,2.2938,2.299,2.3008,2.3023,2.3075,2.3072,2.3084,2.3107,2.3131,2.3136,2.3141,2.3158,2.3164,2.3089,2.3089,2.3089,0,2.2737,2.2784,2.2792,2.2825,2.2843,2.2841,2.2876,2.2893,2.2929,2.294,2.2931,2.2993,2.3011,2.3059,2.3071,2.3085,2.3093,2.3081,2.3135,2.314,2.3144,2.316,2.3167,2.309,2.309,2.309,2.3089,0,2.2805,2.2837,2.2862,2.2895,2.2916,2.295,2.2962,2.2982,2.2984,2.2994,2.3035,2.3056,2.3087,2.3099,2.3102,2.3147,2.314,2.3133,2.3115,2.3152,2.3167,2.3173,2.3092,2.3091,2.3091,2.309,0,0,2.2864,2.29,2.2909,2.2923,2.2952,2.2976,2.3009,2.304,2.3055,2.3079,2.3106,2.3148,2.314,2.3158,2.3162,2.3183,2.322,2.3172,2.3173,2.3179,2.3268,2.3273,2.328,2.3218,2.3219,2.322,2.3266,0,2.2914,2.2973,2.298,2.3032,2.306,2.3057,2.3085,2.3105,2.3115,2.314,2.3151,2.318,2.3168,2.3178,2.3199,2.3211,2.3238,2.3208,2.3241,2.3242,2.3234,2.3289,2.3295,2.3337,2.3272,2.3273,2.3274,0,2.2981,2.3006,2.306,2.3083,2.3095,2.3121,2.3147,2.3172,2.3193,2.3199,2.3217,2.3218,2.325,2.3232,2.3275,2.3255,2.3268,2.3276,2.3278,2.3281,2.326,2.3292,2.3351,2.3357,2.3283,2.3282,2.3282,0,2.3017,2.3064,2.3102,2.3114,2.3142,2.3159,2.3172,2.3192,2.3209,2.3232,2.3243,2.327,2.3284,2.3304,2.3312,2.3298,2.3354,2.3336,2.3358,2.3358,2.337,2.3369,2.3431,2.3381,2.3381,2.338,2.338,0,2.3072,2.3105,2.3118,2.3141,2.3177,2.3184,2.3219,2.323,2.3248,2.3272,2.3272,2.3294,2.3303,2.3327,2.3333,2.3366,2.3373,2.3378,2.3379,2.3377,2.3376,2.3386,2.3383,2.3382,2.3382,2.3381,2.3381,0,2.3118,2.3128,2.3169,2.3191,2.3198,2.3223,2.3242,2.3263,2.3272,2.3303,2.331,2.3324,2.3351,2.3361,2.3394,2.3398,2.3437,2.3436,2.343,2.3429,2.345,2.3448,2.352,2.3529,2.3473,2.3474,2.3474,0,2.3152,2.3177,2.3201,2.3217,2.323,2.3257,2.3273,2.328,2.3297,2.3322,2.3341,2.3368,2.339,2.3434,2.3446,2.3471,2.347,2.3493,2.3474,2.3471,2.3468,2.3466,2.3468,2.3497,2.3497,2.3498,2.3498,0,2.321,2.3213,2.3238,2.3263,2.3283,2.3304,2.3324,2.3337,2.3346,2.3365,2.3393,2.341,2.3443,2.347,2.3494,2.3506,2.3503,2.3504,2.351,2.3509,2.3504,2.3505,2.3438,2.3503,2.3502,2.3502,2.3502,2.3501,2.325,2.3271,2.3291,2.3318,2.3333,2.3351,2.3372,2.3382,2.3406,2.3433,2.3436,2.3465,2.3484,2.3517,2.3529,2.3552,2.3545,2.3554,2.3556,2.3558,2.3559,2.35,2.3556,2.3556,2.3556,2.3556,2.3556,0,2.3307,2.3319,2.3344,2.3371,2.3391,2.3386,2.3407,2.3424,2.345,2.3468,2.3489,2.352,2.3545,2.3558,2.3583,2.3598,2.3597,2.3604,2.3602,2.3605,2.3565,2.3556,2.3604,2.3604,2.3604,2.3604,2.3604,2.3604,2.3339,2.3374,2.3379,2.3421,2.3433,2.3461,2.3473,2.3489,2.3503,2.3537,2.3558,2.3566,2.3582,2.3607,2.3629,2.3632,2.364,2.3648,2.365,2.3613,2.3608,2.3603,2.3595,2.365,2.365,2.3688,2.3688,2.3689]}]]